Location: Kansas State University
(39.1938°N, 96.5858°W)
Time: 10:34:18
(UTC-05:00)

Daily predictions for brighter satellites

Satellite Brightness Start Highest point End
(mag) Time Altitude Azimuth Time Altitude Azimuth Time Altitude Azimuth
Cosmos 962 Rocket 4.5 20:37:16 10° S 20:43:23 79° E 20:49:35 10° N
BREEZE-M DEB (TANK) 4.3 20:41:13 10° W 20:45:31 69° NNW 21:02:46 10° ENE
Cosmos 407 Rocket 4.4 20:41:50 10° N 20:46:20 30° ENE 20:50:48 10° SE
Cosmos 1633 Rocket 3.4 20:43:39 10° NNW 20:47:59 68° W 20:52:18 10° S
Resurs 1-3 4.3 20:44:33 10° SE 20:48:33 35° ENE 20:52:34 10° N
Cosmos 2218 Rocket 4.3 20:49:01 10° SSE 20:55:07 50° E 21:01:16 10° NNE
Cosmos 2344 4.2 20:50:44 10° S 20:57:20 32° ESE 21:04:06 10° NE
Cosmos 1455 3.2 20:54:07 10° SSW 20:57:52 51° W 21:01:39 10° N
Cosmos 2341 Rocket 4.2 20:52:02 10° S 20:58:23 83° W 21:04:44 10° N
Cosmos 1980 4.3 20:53:19 10° SW 20:58:56 63° WNW 21:04:36 10° NNE
Cosmos 2366 rocket 4.2 20:53:28 10° SSE 20:59:24 49° E 21:05:25 10° NNE
Cosmos 1515 Rocket 3.6 20:57:49 10° S 21:02:17 89° W 21:06:46 10° N
USA 186 0.9 21:01:01 10° SSE 21:03:15 62° ENE 21:05:36 10° N
Cosmos 1371 Rocket 4.0 20:59:33 10° SSW 21:04:52 85° ESE 21:10:16 10° NNE
Envisat 3.3 21:00:12 10° S 21:05:15 70° WSW 21:10:20 10° NNW
SL-8 Rocket 4.0 20:59:12 10° S 21:05:28 74° E 21:11:43 10° N
Cosmos 2369 Rocket 4.4 21:06:19 10° NE 21:07:25 10° NE 21:08:30 10° ENE
Cosmos 1441 Rocket 4.1 21:07:31 10° SSE 21:10:43 28° E 21:13:58 10° NNE
Cosmos 2297 4.1 21:06:07 10° NNW 21:11:37 49° ENE 21:16:15 15° SE
ATLAS 5 CENTAUR R/B 4.3 21:13:56 10° N 21:17:31 16° NE 21:21:18 10° ENE
Gblst 52 Del rocket 4.3 21:13:05 10° SSW 21:18:36 50° SE 21:23:53 10° ENE
SJ-6B 4.3 21:16:09 10° SSW 21:19:52 37° W 21:23:32 10° NNW
H-2A R/B 3.5 21:21:22 15° E 21:23:31 20° ENE 21:27:03 10° NNE
Cosmos 1869 3.4 21:20:16 10° S 21:24:16 83° W 21:28:19 10° N
Cosmos 2237 Rocket 3.6 21:19:42 10° SW 21:24:58 41° WNW 21:30:18 10° N
Cosmos 2056 Rocket 3.7 21:20:19 10° SSW 21:25:44 80° WNW 21:31:09 10° NNE
Cosmos 1452 Rocket 4.0 21:21:26 10° SSE 21:26:15 39° ESE 21:31:06 10° NE
Cosmos 1140 Rocket 4.2 21:21:58 10° N 21:26:43 35° ENE 21:29:28 21° ESE
BREEZE-M DEB (TANK) 2.0 21:23:49 10° WNW 21:27:31 75° SW 21:28:27 32° SE
ATLAS 2AS CENTAUR R/B 4.2 21:24:51 10° NW 21:31:47 37° WSW 21:38:12 10° S
Cosmos 864 Rocket 4.4 21:28:18 10° S 21:34:26 89° E 21:40:37 10° N
Cosmos 2278 Rocket 3.5 21:31:49 10° NW 21:37:03 39° WSW 21:42:15 10° S
Cosmos 1825 3.1 21:33:35 10° NNW 21:37:13 47° W 21:40:51 10° SSW
ASTRO E2 3.9 21:34:24 10° WSW 21:37:46 26° S 21:38:44 23° SSE
NOAA 11 4.2 21:33:44 14° SSE 21:38:32 78° ENE 21:44:02 10° N
Cosmos 1933 4.0 21:39:29 29° ESE 21:40:26 33° E 21:44:08 10° NNE
OAO 3 Rocket 4.0 21:37:33 10° SW 21:41:42 30° SSE 21:42:37 28° SE
Cosmos 1190 Rocket 4.1 21:37:42 10° NNW 21:43:00 80° WSW 21:46:57 18° SSE
Cosmos 1408 4.4 21:42:04 10° NNW 21:45:20 30° W 21:48:37 10° SSW
Cosmos 1939 Rocket 4.1 21:42:15 10° SSW 21:45:54 39° W 21:49:37 10° NNW
Meteor 2-10 Rocket 3.9 21:40:24 10° SSW 21:46:09 76° W 21:52:00 10° N
Cosmos 405 Rocket 2.6 21:43:26 14° S 21:46:42 77° E 21:50:39 10° NNE
Spot 2 Rocket 3.6 21:42:55 13° S 21:47:29 75° WSW 21:52:35 10° NNW
Cosmos 405 3.2 21:47:30 10° NNW 21:50:58 65° W 21:52:45 26° S
CZ-4C R/B 2.0 21:46:22 10° SSW 21:51:20 64° ESE 21:57:01 10° NE
Cosmos 1954 Rocket 4.0 21:48:08 10° NNW 21:53:18 63° ENE 21:55:34 33° SE
Cosmos 2098 Rocket 3.8 21:50:06 10° SSW 21:54:12 44° W 21:57:34 10° N
Helios 1A 4.4 21:56:13 22° ENE 21:56:20 22° ENE 21:59:34 10° NNE
ATLAS 2A CENTAUR R/B 4.4 21:35:16 10° WSW 21:56:27 48° S 22:03:00 26° SE
Hubble Space Telescope 3.0 21:55:02 10° SSW 21:56:00 13° SSW 21:56:00 13° SSW
ARGOS 3.3 21:55:18 31° SE 21:57:38 55° ENE 22:02:52 10° N
OAO 3 Copernicus 4.5 21:53:09 10° W 21:58:03 53° S 21:59:34 38° SE
Cosmos 1943 Rocket 3.8 21:57:25 10° N 22:01:19 19° NE 22:02:48 17° ENE
Cosmos 614 Rocket 3.9 21:56:37 10° NNW 22:01:51 76° ENE 22:03:58 36° SSE
NOSS 3-4 (A) 4.1 21:55:58 10° NW 22:03:03 69° WSW 22:07:56 24° SSE
NOSS 3-4 (C) 4.1 21:56:04 10° NW 22:03:09 70° WSW 22:08:01 24° SSE
Resurs 01 Rocket 3.2 22:00:07 10° SSW 22:04:07 33° W 22:08:09 10° NNW
Cosmos 1437 Rocket 3.7 22:04:10 10° N 22:07:20 32° ENE 22:07:20 32° ENE
Lacrosse 5 3.1 22:05:07 10° NNW 22:09:38 31° NE 22:11:23 25° ENE
ERS-1 Rocket 3.3 22:09:44 42° ESE 22:10:50 49° ENE 22:15:41 10° N
Cosmos 1000 Rocket 4.5 22:05:27 10° N 22:11:39 63° E 22:14:08 37° SSE
SPOT 5 3.8 22:12:29 28° ENE 22:12:29 28° ENE 22:16:11 10° N
Cosmos 2239 Rocket 4.5 22:13:05 29° SSE 22:16:22 67° E 22:22:39 10° NNE
Cosmos 1707 Rocket 3.8 22:14:22 24° SSW 22:16:53 67° W 22:21:12 10° N
Cosmos 1821 Rocket 3.9 22:14:57 28° S 22:18:26 72° E 22:24:42 10° NNE
SL-16 R/B 3.7 22:13:55 10° SW 22:19:07 37° WNW 22:24:22 10° N
Cosmos 1862 4.3 22:19:02 10° NNW 22:22:52 44° W 22:24:17 31° SW
Cosmos 1420 Rocket 4.2 22:18:42 10° SSW 22:24:00 74° WNW 22:29:20 10° NNE
MetOp-A 4.2 22:28:40 42° S 22:30:31 74° WSW 22:35:54 10° NNW
Cosmos 1733 Rocket 3.3 22:29:56 10° N 22:33:45 56° NE 22:33:45 56° NE
Meteor 2-17 Rocket 4.5 22:33:40 52° SE 22:34:34 57° E 22:40:33 10° NNE
Cosmos 1633 4.3 22:34:08 10° N 22:35:52 25° NNE 22:35:52 25° NNE
Cosmos 2123 Rocket 4.0 22:33:33 10° N 22:39:47 60° E 22:40:42 55° ESE
RESURS DK-1 3.5 22:36:14 10° N 22:39:18 34° NNE 22:39:18 34° NNE
Cosmos 1943 3.1 22:44:56 67° ESE 22:44:57 67° ESE 22:50:36 10° NNE
Meteor 1-4 Rocket 4.4 22:42:57 10° N 22:44:32 24° N 22:44:32 24° N
Cosmos 1603 3.9 22:41:18 11° SSW 22:46:39 67° WNW 22:52:15 10° NNE
Landsat 7 4.4 22:48:00 46° NE 22:48:00 46° NE 22:51:58 10° N
Cosmos 2369 Rocket 2.2 22:46:54 10° NNW 22:52:35 66° ENE 22:52:46 65° ENE
Helios 1B rocket 3.7 22:49:38 10° NNE 22:52:02 34° NNE 22:52:02 34° NNE
SPOT 1/Viking Rocket 3.5 22:55:06 77° ENE 22:55:06 77° ENE 23:00:15 10° N
SL-08 RB Rocket 4.4 22:57:29 44° WSW 22:57:39 45° W 23:01:56 10° NNW
GEOS 3 Rocket 4.5 22:55:43 10° NE 22:59:03 38° NE 22:59:03 38° NE
H-2A R/B 2.7 23:01:59 43° WSW 23:02:36 45° W 23:07:21 10° NNW
ATLAS 5 CENTAUR R/B 2.4 22:57:09 10° NNW 23:03:10 70° NE 23:03:41 67° E
CZ-2C R/B 4.3 23:05:08 27° NE 23:05:08 27° NE 23:08:07 10° N
Cosmos 2263 4.4 22:59:43 10° NNW 23:04:57 59° NE 23:04:57 59° NE
Terra 2.7 23:06:29 40° NNE 23:06:29 40° NNE 23:09:55 10° N
Cosmos 1605 Rocket 3.9 23:08:38 76° S 23:09:12 87° E 23:15:38 10° N
DMSP B5D2-2 4.2 23:04:06 10° N 23:09:21 68° WNW 23:09:44 66° WSW
Cosmos 1447 Rocket 4.5 23:22:17 10° N 23:27:54 72° NNE 23:27:54 72° NNE
Cosmos 1461 4.5 23:29:20 10° NNW 23:32:22 38° NNW 23:32:22 38° NNW
CZ-4C R/B 4.5 23:36:15 10° W 23:40:26 22° NW 23:45:05 10° NNE
Cosmos 1943 Rocket 2.8 23:40:02 10° NNW 23:44:20 50° WNW 23:44:20 50° WNW
USA 267 3.5 23:45:13 10° NE 23:50:23 59° NE 23:50:23 59° NE
Lacrosse 5 3.5 23:47:53 10° NW 23:50:34 29° WNW 23:50:34 29° WNW
